Overview Statistics Trail Chart Weather Telemetry Raw packets
 

This is the latest recevied weather packets stored in our database for station/object DK6MR-13. If no packets are shown the sender has not sent any weather packets the latest 10 day(s).

<< 1 2 3 4 >>
Time Temp. Humidity Pressure Rain* Wind** Luminosity Snow
1778092896 9.44° C 92% 1007.4 hPa 0 mm - - -
1778091994 9.44° C 92% 1007.1 hPa 1.27 mm - - -
1778091094 9.44° C 92% 1006.7 hPa 0 mm - - -
1778090193 9.44° C 92% 1007.1 hPa 0 mm - - -
1778089292 9.44° C 91% 1007.1 hPa 1.78 mm - - -
1778088391 9.44° C 91% 1006.7 hPa 0 mm - - -
1778087490 9.44° C 90% 1006.7 hPa 0 mm - - -
1778086588 10° C 90% 1006.4 hPa 0 mm - - -
1778085688 10° C 90% 1006.4 hPa 0 mm - - -
1778084787 10° C 89% 1006.4 hPa 0 mm - - -
1778083886 10.56° C 89% 1006.4 hPa 0 mm - - -
1778082985 10.56° C 89% 1006.4 hPa 0 mm - - -
1778082084 10.56° C 90% 1006.4 hPa 0 mm - - -
1778081183 10.56° C 90% 1006.1 hPa 0 mm - - -
1778080282 10.56° C 91% 1006.1 hPa 0 mm - - -
1778079381 10.56° C 91% 1005.7 hPa 0 mm - - -
1778078480 10.56° C 91% 1006.1 hPa 1.78 mm - - -
1778077579 10.56° C 91% 1005.7 hPa 1.27 mm - - -
1778076678 10.56° C 91% 1006.1 hPa 0 mm - - -
1778075777 10.56° C 90% 1005.4 hPa 0 mm - - -
1778074876 10.56° C 90% 1005.7 hPa 0 mm - - -
1778073975 11.11° C 91% 1005.4 hPa 0 mm - - -
1778073074 11.11° C 90% 1005.4 hPa 0 mm - - -
1778072173 11.11° C 91% 1005.4 hPa 0 mm - - -
1778071272 11.11° C 91% 1005.4 hPa 0 mm - - -

* Rain latest hour (hover to see other rain measurements)
** Current wind speed in m/s (hover to see current wind gust speed)